TimePDT,TemperatureF,Dew PointF,Humidity,Sea Level PressureIn,VisibilityMPH,Wind Direction,Wind SpeedMPH,Gust SpeedMPH,PrecipitationIn,Events,Conditions,WindDirDegrees,DateUTC
12:49 AM,53.6,51.8,94,29.53,2.5,West,33.4,46.0,0.04,Rain,Heavy Rain,280,2013-09-30 07:49:00
12:53 AM,52.0,50.0,93,29.51,2.0,West,32.2,46.0,0.06,Rain,Heavy Rain,280,2013-09-30 07:53:00
1:00 AM,51.1,48.9,92,29.53,2.5,West,33.4,43.7,0.03,Rain,Heavy Rain,280,2013-09-30 08:00:00
1:07 AM,51.1,48.9,92,29.54,4.0,West,29.9,43.7,0.06,Rain,Rain,280,2013-09-30 08:07:00
1:53 AM,48.9,44.1,83,29.58,6.0,West,31.1,46.0,0.11,Rain,Rain,260,2013-09-30 08:53:00
2:53 AM,50.0,41.0,71,29.60,10.0,WSW,25.3,33.4,0.03,,Mostly Cloudy,250,2013-09-30 09:53:00
3:53 AM,48.0,39.9,74,29.64,10.0,SSW,13.8,-,N/A,,Clear,210,2013-09-30 10:53:00
4:53 AM,48.9,37.0,64,29.69,10.0,WSW,12.7,-,N/A,,Clear,240,2013-09-30 11:53:00
5:53 AM,48.0,37.9,68,29.70,10.0,SW,12.7,-,N/A,,Clear,220,2013-09-30 12:53:00
6:53 AM,46.9,36.0,66,29.73,10.0,SSW,11.5,-,N/A,,Clear,210,2013-09-30 13:53:00
7:53 AM,48.9,35.1,59,29.74,10.0,SSW,10.4,-,N/A,,Clear,200,2013-09-30 14:53:00
8:53 AM,53.1,35.1,50,29.76,10.0,SSW,10.4,17.3,N/A,,Scattered Clouds,200,2013-09-30 15:53:00
9:53 AM,57.0,35.1,44,29.77,10.0,SW,21.9,31.1,N/A,,Scattered Clouds,230,2013-09-30 16:53:00
10:53 AM,60.1,36.0,41,29.78,10.0,WSW,28.8,40.3,N/A,,Clear,240,2013-09-30 17:53:00
11:53 AM,61.0,37.0,41,29.80,10.0,WSW,26.5,34.5,N/A,,Scattered Clouds,250,2013-09-30 18:53:00
12:53 PM,63.0,37.0,38,29.82,10.0,WSW,26.5,38.0,N/A,,Mostly Cloudy,250,2013-09-30 19:53:00
1:53 PM,62.1,36.0,38,29.83,10.0,WSW,26.5,36.8,N/A,,Overcast,250,2013-09-30 20:53:00
2:53 PM,64.0,36.0,35,29.84,10.0,WSW,25.3,-,N/A,,Mostly Cloudy,240,2013-09-30 21:53:00
3:53 PM,64.0,37.0,37,29.86,10.0,West,31.1,34.5,N/A,,Mostly Cloudy,260,2013-09-30 22:53:00
4:53 PM,61.0,37.0,41,29.87,10.0,West,20.7,29.9,N/A,,Scattered Clouds,260,2013-09-30 23:53:00
5:53 PM,57.0,41.0,55,29.88,10.0,West,16.1,-,N/A,,Clear,280,2013-10-01 00:53:00
6:53 PM,53.1,43.0,69,29.90,10.0,WNW,10.4,-,N/A,,Overcast,290,2013-10-01 01:53:00
7:53 PM,51.1,43.0,74,29.92,10.0,WNW,9.2,-,N/A,,Mostly Cloudy,290,2013-10-01 02:53:00
8:53 PM,50.0,43.0,77,29.94,10.0,WNW,9.2,-,N/A,,Overcast,290,2013-10-01 03:53:00
9:53 PM,51.1,41.0,68,29.96,10.0,South,6.9,-,N/A,,Overcast,190,2013-10-01 04:53:00
10:53 PM,50.0,42.1,74,29.96,10.0,SE,5.8,-,N/A,,Overcast,140,2013-10-01 05:53:00
11:53 PM,51.1,39.0,63,29.96,10.0,WSW,11.5,-,N/A,,Mostly Cloudy,250,2013-10-01 06:53:00